| time (UTC) | temp F | wind direction | speed MPH | gust MPH | rain 1hr in | rain 24hr in | rain mn in | humidity % | barometer mb |
| 20260831233859 | 69 | 207 | 0.0 | 0.0 | 0.00 | 1.01 | 1.01 | 88 | 1015.3 |
| 20260831233357 | 69 | 207 | 0.0 | 0.0 | 0.00 | 1.01 | 1.01 | 89 | 1015.3 |
| 20260831232855 | 69 | 207 | 0.0 | 0.0 | 0.00 | 1.01 | 1.01 | 88 | 1015.4 |
| 20260831232352 | 69 | 207 | 0.0 | 0.0 | 0.00 | 1.01 | 1.01 | 89 | 1015.5 |
| 20260831231922 | 69 | 207 | 0.0 | 0.0 | 0.00 | 1.01 | 1.01 | 89 | 1015.4 |
| 20260831231349 | 69 | 207 | 0.0 | 0.0 | 0.00 | 1.01 | 1.01 | 88 | 1015.4 |
| 20260831230923 | 69 | 207 | 0.0 | 0.0 | 0.00 | 1.01 | 1.01 | 89 | 1015.5 |
| 20260831230346 | 69 | 207 | 0.0 | 0.0 | 0.00 | 1.01 | 1.01 | 89 | 1015.5 |
| 20260831225844 | 69 | 207 | 0.0 | 0.0 | 0.00 | 1.01 | 1.01 | 88 | 1015.5 |
| 20260831225339 | 69 | 207 | 0.0 | 0.0 | 0.00 | 1.01 | 1.01 | 89 | 1015.5 |
| 20260831224832 | 69 | 207 | 0.0 | 0.0 | 0.00 | 1.01 | 1.01 | 89 | 1015.5 |
| 20260831224333 | 69 | 207 | 0.0 | 0.0 | 0.00 | 1.01 | 1.01 | 89 | 1015.5 |
| 20260831223831 | 69 | 207 | 0.0 | 0.0 | 0.00 | 1.01 | 1.01 | 89 | 1015.6 |
| 20260831223332 | 69 | 207 | 0.0 | 0.0 | 0.00 | 1.01 | 1.01 | 89 | 1015.6 |
| 20260831222831 | 69 | 207 | 0.0 | 0.0 | 0.00 | 1.01 | 1.01 | 89 | 1015.6 |
| 20260831222332 | 69 | 207 | 0.0 | 0.0 | 0.00 | 1.01 | 1.01 | 88 | 1015.6 |
| 20260831221830 | 69 | 207 | 0.0 | 0.0 | 0.00 | 1.01 | 1.01 | 88 | 1015.6 |
| 20260831221330 | 69 | 207 | 0.0 | 0.0 | 0.00 | 1.01 | 1.01 | 89 | 1015.6 |
| 20260831220831 | 69 | 207 | 0.0 | 0.0 | 0.00 | 1.01 | 1.01 | 89 | 1015.6 |
| 20260831220331 | 69 | 207 | 0.0 | 0.0 | 0.00 | 1.01 | 1.01 | 89 | 1015.6 |
| 20260831215830 | 69 | 207 | 0.0 | 0.0 | 0.00 | 1.01 | 1.01 | 89 | 1015.6 |
| 20260831215330 | 69 | 207 | 0.0 | 0.0 | 0.01 | 1.01 | 1.01 | 89 | 1015.6 |
| 20260831214831 | 69 | 207 | 0.0 | 0.0 | 0.01 | 1.01 | 1.01 | 89 | 1015.6 |
| 20260831214331 | 69 | 207 | 0.0 | 0.0 | 0.01 | 1.01 | 1.01 | 89 | 1015.6 |
| 20260831213922 | 69 | 207 | 0.0 | 0.0 | 0.01 | 1.01 | 1.01 | 89 | 1015.7 |
| 20260831213330 | 69 | 207 | 0.0 | 0.0 | 0.01 | 1.01 | 1.01 | 89 | 1015.7 |
| 20260831212922 | 69 | 207 | 0.0 | 0.0 | 0.01 | 1.01 | 1.01 | 89 | 1015.7 |
| 20260831212329 | 69 | 207 | 0.0 | 0.0 | 0.01 | 1.01 | 1.01 | 89 | 1015.7 |
| 20260831211822 | 69 | 207 | 0.0 | 0.0 | 0.01 | 1.01 | 1.01 | 89 | 1015.7 |
| 20260831211316 | 69 | 207 | 0.0 | 0.0 | 0.01 | 1.01 | 1.01 | 89 | 1015.7 |
| 20260831210810 | 69 | 207 | 0.0 | 0.0 | 0.02 | 1.01 | 1.01 | 89 | 1015.8 |
| 20260831210352 | 69 | 207 | 0.0 | 0.0 | 0.02 | 1.01 | 1.01 | 89 | 1015.8 |
| 20260831205919 | 69 | 207 | 0.0 | 0.0 | 0.03 | 1.01 | 1.01 | 89 | 1015.8 |
| 20260831205307 | 69 | 207 | 0.0 | 0.0 | 0.03 | 1.00 | 1.00 | 89 | 1015.8 |
| 20260831204807 | 69 | 207 | 0.0 | 0.0 | 0.04 | 1.00 | 1.00 | 89 | 1015.8 |
| 20260831204306 | 69 | 207 | 0.0 | 0.0 | 0.05 | 1.00 | 1.00 | 89 | 1015.7 |
| 20260831203806 | 69 | 207 | 0.0 | 0.0 | 0.06 | 1.00 | 1.00 | 89 | 1015.7 |
| 20260831203303 | 69 | 207 | 0.0 | 0.0 | 0.06 | 1.00 | 1.00 | 89 | 1015.6 |
| 20260831202803 | 69 | 207 | 0.0 | 0.0 | 0.07 | 1.00 | 1.00 | 89 | 1015.6 |
| 20260831202306 | 69 | 207 | 0.0 | 0.0 | 0.09 | 1.00 | 1.00 | 89 | 1015.6 |
| 20260831201802 | 68 | 207 | 0.0 | 0.0 | 0.10 | 1.00 | 1.00 | 89 | 1015.6 |
| 20260831201303 | 68 | 207 | 0.0 | 0.0 | 0.11 | 1.00 | 1.00 | 90 | 1015.7 |
| 20260831200803 | 69 | 207 | 0.0 | 0.0 | 0.11 | 0.99 | 0.99 | 90 | 1015.8 |
| 20260831200302 | 69 | 207 | 0.0 | 0.0 | 0.11 | 0.99 | 0.99 | 89 | 1015.9 |
| 20260831195803 | 69 | 207 | 0.0 | 0.0 | 0.11 | 0.98 | 0.98 | 89 | 1015.9 |
| 20260831195306 | 69 | 207 | 0.0 | 0.0 | 0.11 | 0.97 | 0.96 | 89 | 1015.9 |
| 20260831194802 | 69 | 207 | 0.0 | 0.0 | 0.10 | 0.96 | 0.96 | 89 | 1016.0 |
| 20260831194302 | 69 | 207 | 0.0 | 0.0 | 0.10 | 0.95 | 0.94 | 89 | 1016.2 |
| 20260831193802 | 69 | 207 | 0.0 | 0.0 | 0.09 | 0.94 | 0.94 | 89 | 1016.2 |
| 20260831193302 | 69 | 207 | 0.0 | 0.0 | 0.09 | 0.94 | 0.94 | 89 | 1016.3 |
| 20260831192802 | 69 | 207 | 0.0 | 0.0 | 0.08 | 0.93 | 0.92 | 89 | 1016.4 |
| 20260831192305 | 69 | 207 | 0.0 | 0.0 | 0.06 | 0.91 | 0.91 | 90 | 1016.4 |
| 20260831191921 | 69 | 207 | 0.0 | 0.0 | 0.05 | 0.90 | 0.90 | 89 | 1016.4 |
| 20260831191302 | 69 | 207 | 0.0 | 0.0 | 0.06 | 0.89 | 0.89 | 89 | 1016.5 |
| 20260831190802 | 69 | 207 | 0.0 | 0.0 | 0.09 | 0.88 | 0.88 | 89 | 1016.5 |
| 20260831190302 | 69 | 207 | 0.0 | 0.0 | 0.13 | 0.88 | 0.88 | 89 | 1016.6 |
| 20260831185803 | 69 | 207 | 0.0 | 0.0 | 0.19 | 0.87 | 0.87 | 89 | 1016.6 |
| 20260831185302 | 69 | 207 | 0.0 | 0.0 | 0.23 | 0.86 | 0.86 | 89 | 1016.6 |
| 20260831184802 | 69 | 207 | 0.0 | 0.0 | 0.25 | 0.86 | 0.86 | 90 | 1016.7 |
| 20260831184302 | 69 | 207 | 0.0 | 0.0 | 0.26 | 0.85 | 0.85 | 90 | 1016.7 |
| 20260831183802 | 69 | 207 | 0.0 | 0.0 | 0.27 | 0.85 | 0.85 | 90 | 1016.7 |
| 20260831183302 | 69 | 207 | 0.0 | 0.0 | 0.29 | 0.85 | 0.85 | 89 | 1016.7 |
| 20260831182802 | 69 | 207 | 0.0 | 0.0 | 0.35 | 0.85 | 0.85 | 89 | 1016.7 |
| 20260831182305 | 69 | 207 | 0.0 | 0.0 | 0.39 | 0.85 | 0.85 | 89 | 1016.6 |
| 20260831181803 | 69 | 208 | 0.0 | 0.0 | 0.39 | 0.85 | 0.84 | 90 | 1016.5 |
| 20260831181302 | 68 | 208 | 0.0 | 0.0 | 0.37 | 0.83 | 0.82 | 90 | 1016.6 |
| 20260831180803 | 68 | 207 | 0.0 | 0.0 | 0.34 | 0.79 | 0.79 | 90 | 1016.7 |
| 20260831180303 | 68 | 207 | 0.0 | 0.0 | 0.30 | 0.75 | 0.74 | 90 | 1016.7 |
| 20260831175802 | 68 | 207 | 0.0 | 0.0 | 0.23 | 0.68 | 0.67 | 90 | 1017.0 |
| 20260831175305 | 68 | 207 | 0.0 | 0.0 | 0.18 | 0.63 | 0.62 | 90 | 1017.0 |
| 20260831174803 | 68 | 207 | 0.0 | 0.0 | 0.16 | 0.61 | 0.60 | 90 | 1017.0 |
| 20260831174303 | 68 | 208 | 0.0 | 0.0 | 0.15 | 0.59 | 0.59 | 90 | 1016.9 |
| 20260831173803 | 69 | 210 | 0.0 | 0.0 | 0.14 | 0.58 | 0.58 | 90 | 1016.9 |
| 20260831173302 | 69 | 211 | 0.0 | 0.0 | 0.12 | 0.56 | 0.55 | 90 | 1017.0 |
| 20260831172802 | 69 | 211 | 0.0 | 0.0 | 0.06 | 0.50 | 0.50 | 90 | 1017.0 |
| 20260831172306 | 69 | 211 | 0.0 | 0.0 | 0.02 | 0.46 | 0.46 | 90 | 1017.1 |
| 20260831171803 | 69 | 211 | 0.0 | 0.0 | 0.02 | 0.47 | 0.46 | 90 | 1017.0 |
| 20260831171302 | 69 | 211 | 0.0 | 1.0 | 0.02 | 0.47 | 0.45 | 90 | 1017.2 |
| 20260831170803 | 69 | 211 | 0.0 | 1.0 | 0.01 | 0.46 | 0.45 | 90 | 1017.1 |
| 20260831170303 | 69 | 213 | 0.0 | 0.0 | 0.01 | 0.47 | 0.45 | 90 | 1017.2 |
| 20260831165802 | 69 | 213 | 0.0 | 0.0 | 0.01 | 0.47 | 0.45 | 90 | 1017.3 |
| 20260831165305 | 69 | 213 | 0.0 | 0.0 | 0.01 | 0.48 | 0.45 | 90 | 1017.3 |
| 20260831164803 | 69 | 213 | 0.0 | 0.0 | 0.01 | 0.49 | 0.45 | 90 | 1017.4 |
| 20260831164302 | 69 | 214 | 0.0 | 0.0 | 0.00 | 0.50 | 0.44 | 90 | 1017.4 |
| 20260831163804 | 69 | 214 | 0.0 | 0.0 | 0.01 | 0.50 | 0.44 | 90 | 1017.4 |
| 20260831163302 | 69 | 214 | 0.0 | 0.0 | 0.01 | 0.51 | 0.44 | 90 | 1017.5 |
| 20260831162805 | 69 | 215 | 0.0 | 0.0 | 0.01 | 0.51 | 0.44 | 90 | 1017.5 |
| 20260831162305 | 69 | 215 | 0.0 | 0.0 | 0.01 | 0.51 | 0.44 | 89 | 1017.6 |
| 20260831161921 | 69 | 215 | 0.0 | 0.0 | 0.01 | 0.51 | 0.44 | 89 | 1017.8 |
| 20260831161302 | 69 | 215 | 0.0 | 0.0 | 0.02 | 0.51 | 0.44 | 89 | 1017.8 |
| 20260831160918 | 69 | 215 | 0.0 | 0.0 | 0.02 | 0.51 | 0.44 | 89 | 1017.7 |
| 20260831160302 | 69 | 215 | 0.0 | 0.0 | 0.02 | 0.51 | 0.44 | 90 | 1017.8 |
| 20260831155755 | 69 | 215 | 0.0 | 0.0 | 0.02 | 0.51 | 0.44 | 89 | 1017.7 |
| 20260831155256 | 69 | 215 | 0.0 | 0.0 | 0.03 | 0.51 | 0.44 | 89 | 1017.8 |
| 20260831154756 | 69 | 215 | 0.0 | 0.0 | 0.04 | 0.51 | 0.44 | 89 | 1017.8 |
| 20260831154256 | 69 | 215 | 0.0 | 0.0 | 0.05 | 0.51 | 0.44 | 89 | 1017.7 |
| 20260831153753 | 68 | 215 | 0.0 | 0.0 | 0.05 | 0.51 | 0.43 | 89 | 1017.7 |
| 20260831153252 | 68 | 215 | 0.0 | 0.0 | 0.06 | 0.51 | 0.43 | 89 | 1017.8 |
| 20260831152921 | 68 | 215 | 0.0 | 0.0 | 0.06 | 0.51 | 0.43 | 89 | 1017.8 |
| 20260831152250 | 68 | 215 | 0.0 | 0.0 | 0.06 | 0.51 | 0.43 | 89 | 1017.9 |
| 20260831151749 | 68 | 215 | 0.0 | 0.0 | 0.06 | 0.51 | 0.43 | 89 | 1017.9 |
| 20260831151248 | 68 | 215 | 0.0 | 0.0 | 0.06 | 0.50 | 0.42 | 89 | 1018.0 |
| 20260831150746 | 68 | 215 | 0.0 | 0.0 | 0.07 | 0.50 | 0.42 | 89 | 1018.1 |
| 20260831150244 | 68 | 215 | 0.0 | 0.0 | 0.08 | 0.50 | 0.42 | 89 | 1018.1 |
| 20260831145742 | 68 | 215 | 0.0 | 0.0 | 0.10 | 0.50 | 0.42 | 89 | 1018.1 |
| 20260831145242 | 67 | 215 | 0.0 | 0.0 | 0.09 | 0.49 | 0.41 | 89 | 1018.0 |
| 20260831144742 | 67 | 215 | 0.0 | 0.0 | 0.08 | 0.48 | 0.40 | 89 | 1017.8 |
| 20260831144240 | 67 | 215 | 0.0 | 0.0 | 0.08 | 0.47 | 0.38 | 90 | 1017.9 |
| 20260831143737 | 67 | 215 | 0.0 | 0.0 | 0.08 | 0.46 | 0.38 | 90 | 1017.8 |
| 20260831143235 | 67 | 215 | 0.0 | 0.0 | 0.07 | 0.45 | 0.37 | 90 | 1017.8 |
| 20260831142734 | 67 | 215 | 0.0 | 0.0 | 0.08 | 0.45 | 0.37 | 89 | 1018.1 |
| 20260831142231 | 67 | 215 | 0.0 | 0.0 | 0.09 | 0.45 | 0.37 | 89 | 1018.1 |
| 20260831141731 | 67 | 215 | 0.0 | 0.0 | 0.10 | 0.45 | 0.37 | 89 | 1018.0 |
| 20260831141227 | 67 | 215 | 0.0 | 0.0 | 0.10 | 0.44 | 0.36 | 90 | 1018.0 |
| 20260831140722 | 67 | 215 | 0.0 | 0.0 | 0.12 | 0.43 | 0.35 | 90 | 1017.9 |
| 20260831140214 | 67 | 215 | 0.0 | 0.0 | 0.12 | 0.42 | 0.33 | 90 | 1017.6 |
| 20260831135209 | 67 | 215 | 0.0 | 0.0 | 0.16 | 0.40 | 0.32 | 90 | 1017.5 |
| 20260831134915 | 67 | 215 | 0.0 | 0.0 | 0.21 | 0.40 | 0.32 | 90 | 1017.4 |
| 20260831134407 | 67 | 215 | 0.0 | 0.0 | 0.23 | 0.39 | 0.31 | 90 | 1017.5 |
| 20260831133916 | 67 | 215 | 0.0 | 0.0 | 0.25 | 0.38 | 0.30 | 90 | 1017.7 |
| 20260831133207 | 67 | 215 | 0.0 | 0.0 | 0.27 | 0.38 | 0.30 | 90 | 1017.6 |
| 20260831132705 | 67 | 215 | 0.0 | 0.0 | 0.27 | 0.37 | 0.29 | 90 | 1017.6 |
| 20260831132205 | 67 | 215 | 0.0 | 2.0 | 0.26 | 0.36 | 0.28 | 90 | 1017.6 |
| 20260831131705 | 67 | 215 | 0.0 | 2.0 | 0.25 | 0.35 | 0.27 | 90 | 1017.6 |
| 20260831131205 | 67 | 215 | 0.0 | 0.0 | 0.23 | 0.33 | 0.25 | 90 | 1017.7 |
| 20260831130706 | 67 | 19 | 0.0 | 0.0 | 0.21 | 0.31 | 0.23 | 90 | 1017.9 |
| 20260831130205 | 67 | 19 | 0.0 | 0.0 | 0.20 | 0.30 | 0.21 | 90 | 1017.9 |
| 20260831125705 | 67 | 19 | 0.0 | 0.0 | 0.17 | 0.27 | 0.18 | 90 | 1017.9 |
| 20260831125203 | 67 | 18 | 0.0 | 0.0 | 0.15 | 0.24 | 0.14 | 90 | 1017.9 |
| 20260831124702 | 67 | 18 | 0.0 | 0.0 | 0.11 | 0.19 | 0.10 | 90 | 1018.0 |
| 20260831124202 | 67 | 18 | 0.0 | 0.0 | 0.08 | 0.16 | 0.08 | 90 | 1018.0 |
| 20260831123702 | 67 | 18 | 0.0 | 0.0 | 0.05 | 0.13 | 0.04 | 90 | 1018.0 |
| 20260831123201 | 67 | 18 | 0.0 | 0.0 | 0.03 | 0.11 | 0.03 | 90 | 1018.1 |
| 20260831122655 | 67 | 19 | 0.0 | 0.0 | 0.02 | 0.10 | 0.02 | 90 | 1018.1 |
| 20260831122151 | 67 | 18 | 0.0 | 0.0 | 0.02 | 0.10 | 0.02 | 90 | 1018.2 |
| 20260831121150 | 67 | 19 | 0.0 | 0.0 | 0.02 | 0.10 | 0.02 | 90 | 1018.1 |
| 20260831120147 | 67 | 18 | 0.0 | 0.0 | 0.02 | 0.10 | 0.02 | 90 | 1018.1 |
| 20260831115648 | 67 | 18 | 0.0 | 0.0 | 0.02 | 0.10 | 0.01 | 91 | 1018.2 |
| 20260831115147 | 66 | 18 | 0.0 | 0.0 | 0.01 | 0.09 | 0.01 | 91 | 1018.1 |
| 20260831114646 | 66 | 19 | 0.0 | 0.0 | 0.00 | 0.08 | 0.00 | 91 | 1018.2 |
| 20260831114145 | 66 | 19 | 0.0 | 0.0 | 0.00 | 0.08 | 0.00 | 91 | 1018.2 |
| 20260831113145 | 66 | 20 | 0.0 | 0.0 | 0.00 | 0.08 | 0.00 | 91 | 1018.1 |
| 20260831112141 | 66 | 22 | 0.0 | 0.0 | 0.00 | 0.08 | 0.00 | 91 | 1018.1 |
| 20260831111141 | 66 | 23 | 0.0 | 0.0 | 0.00 | 0.08 | 0.00 | 91 | 1018.1 |
| 20260831110141 | 66 | 24 | 0.0 | 0.0 | 0.00 | 0.08 | 0.00 | 91 | 1017.9 |
| 20260831105141 | 66 | 23 | 0.0 | 0.0 | 0.00 | 0.08 | 0.00 | 91 | 1017.9 |
| 20260831104139 | 66 | 23 | 0.0 | 0.0 | 0.00 | 0.08 | 0.00 | 91 | 1017.8 |
| 20260831103139 | 66 | 24 | 0.0 | 0.0 | 0.00 | 0.08 | 0.00 | 91 | 1017.9 |
| 20260831102138 | 66 | 24 | 0.0 | 0.0 | 0.00 | 0.08 | 0.00 | 91 | 1017.8 |
| 20260831101136 | 66 | 24 | 0.0 | 0.0 | 0.00 | 0.08 | 0.00 | 91 | 1017.7 |
| 20260831100136 | 66 | 23 | 0.0 | 0.0 | 0.00 | 0.08 | 0.00 | 91 | 1017.8 |
| 20260831095131 | 66 | 24 | 0.0 | 0.0 | 0.00 | 0.08 | 0.00 | 91 | 1017.8 |
| 20260831094630 | 66 | 22 | 0.0 | 0.0 | 0.00 | 0.08 | 0.00 | 91 | 1017.8 |
| 20260831094124 | 66 | 22 | 0.0 | 0.0 | 0.00 | 0.08 | 0.00 | 91 | 1017.9 |
| 20260831093618 | 66 | 23 | 0.0 | 0.0 | 0.00 | 0.08 | 0.00 | 91 | 1017.9 |
| 20260831093112 | 66 | 23 | 0.0 | 0.0 | 0.00 | 0.08 | 0.00 | 91 | 1018.0 |
| 20260831092606 | 66 | 22 | 0.0 | 0.0 | 0.00 | 0.08 | 0.00 | 91 | 1018.0 |
| 20260831092105 | 66 | 22 | 0.0 | 0.0 | 0.00 | 0.08 | 0.00 | 91 | 1018.0 |
| 20260831091605 | 66 | 23 | 0.0 | 0.0 | 0.00 | 0.08 | 0.00 | 91 | 1018.1 |
| 20260831091105 | 66 | 23 | 0.0 | 0.0 | 0.00 | 0.08 | 0.00 | 91 | 1018.1 |
| 20260831090604 | 66 | 23 | 0.0 | 0.0 | 0.00 | 0.08 | 0.00 | 91 | 1018.0 |
| 20260831090103 | 66 | 23 | 0.0 | 0.0 | 0.00 | 0.08 | 0.00 | 91 | 1018.1 |
| 20260831085605 | 66 | 23 | 0.0 | 0.0 | 0.00 | 0.08 | 0.00 | 91 | 1018.2 |
| 20260831085103 | 66 | 23 | 0.0 | 0.0 | 0.00 | 0.08 | 0.00 | 91 | 1018.2 |
| 20260831084602 | 66 | 23 | 0.0 | 0.0 | 0.00 | 0.08 | 0.00 | 91 | 1018.2 |
| 20260831084102 | 66 | 24 | 0.0 | 0.0 | 0.00 | 0.08 | 0.00 | 91 | 1018.1 |
| 20260831083602 | 66 | 23 | 0.0 | 0.0 | 0.00 | 0.08 | 0.00 | 91 | 1018.2 |
| 20260831083104 | 66 | 23 | 0.0 | 0.0 | 0.00 | 0.08 | 0.00 | 91 | 1018.3 |
| 20260831082602 | 66 | 22 | 0.0 | 0.0 | 0.00 | 0.08 | 0.00 | 91 | 1018.3 |
| 20260831082102 | 66 | 24 | 0.0 | 0.0 | 0.00 | 0.08 | 0.00 | 91 | 1018.3 |
| 20260831081602 | 66 | 23 | 0.0 | 0.0 | 0.00 | 0.08 | 0.00 | 91 | 1018.3 |
| 20260831081103 | 66 | 24 | 0.0 | 0.0 | 0.00 | 0.08 | 0.00 | 91 | 1018.3 |
| 20260831080603 | 66 | 24 | 0.0 | 0.0 | 0.00 | 0.08 | 0.00 | 91 | 1018.4 |
| 20260831075600 | 66 | 24 | 0.0 | 0.0 | 0.00 | 0.08 | 0.00 | 91 | 1018.3 |
| 20260831075053 | 66 | 24 | 0.0 | 0.0 | 0.00 | 0.08 | 0.00 | 91 | 1018.3 |
| 20260831074547 | 66 | 23 | 0.0 | 0.0 | 0.00 | 0.08 | 0.00 | 91 | 1018.2 |
| 20260831074040 | 66 | 24 | 0.0 | 0.0 | 0.00 | 0.08 | 0.00 | 91 | 1018.2 |
| 20260831073534 | 66 | 24 | 0.0 | 0.0 | 0.00 | 0.08 | 0.00 | 91 | 1018.2 |
| 20260831073034 | 66 | 23 | 0.0 | 0.0 | 0.00 | 0.08 | 0.00 | 91 | 1018.2 |
| 20260831072533 | 66 | 23 | 0.0 | 0.0 | 0.00 | 0.08 | 0.00 | 91 | 1018.3 |
| 20260831072033 | 66 | 24 | 0.0 | 0.0 | 0.00 | 0.08 | 0.00 | 91 | 1018.2 |
| 20260831071532 | 66 | 24 | 0.0 | 0.0 | 0.00 | 0.08 | 0.00 | 91 | 1018.3 |
| 20260831071031 | 65 | 24 | 0.0 | 0.0 | 0.00 | 0.08 | 0.00 | 91 | 1018.4 |
| 20260831070531 | 65 | 24 | 0.0 | 0.0 | 0.00 | 0.08 | 0.00 | 91 | 1018.4 |
| 20260831070031 | 65 | 24 | 0.0 | 0.0 | 0.00 | 0.08 | 0.00 | 91 | 1018.3 |
| 20260831065531 | 65 | 24 | 0.0 | 0.0 | 0.00 | 0.08 | 0.00 | 90 | 1018.4 |
| 20260831065030 | 65 | 24 | 0.0 | 0.0 | 0.00 | 0.08 | 0.00 | 90 | 1018.3 |
| 20260831064531 | 65 | 24 | 0.0 | 0.0 | 0.00 | 0.08 | 0.00 | 90 | 1018.3 |
| 20260831064030 | 65 | 24 | 0.0 | 0.0 | 0.00 | 0.08 | 0.00 | 90 | 1018.3 |
| 20260831063531 | 65 | 24 | 0.0 | 0.0 | 0.00 | 0.08 | 0.00 | 90 | 1018.3 |
| 20260831063031 | 65 | 25 | 0.0 | 0.0 | 0.00 | 0.08 | 0.00 | 90 | 1018.5 |
| 20260831062531 | 65 | 24 | 0.0 | 0.0 | 0.00 | 0.08 | 0.00 | 90 | 1018.4 |
| 20260831062030 | 65 | 24 | 0.0 | 0.0 | 0.00 | 0.08 | 0.00 | 90 | 1018.5 |
| 20260831061531 | 65 | 24 | 0.0 | 0.0 | 0.00 | 0.08 | 0.00 | 90 | 1018.6 |
| 20260831061030 | 65 | 23 | 0.0 | 0.0 | 0.00 | 0.08 | 0.00 | 90 | 1018.5 |
| 20260831060531 | 65 | 23 | 0.0 | 0.0 | 0.00 | 0.08 | 0.00 | 90 | 1018.4 |
| 20260831060032 | 65 | 24 | 0.0 | 0.0 | 0.00 | 0.08 | 0.00 | 90 | 1018.4 |
| 20260831055530 | 65 | 24 | 0.0 | 0.0 | 0.00 | 0.08 | 0.00 | 90 | 1018.5 |
| 20260831055031 | 65 | 24 | 0.0 | 0.0 | 0.00 | 0.08 | 0.00 | 90 | 1018.5 |
| 20260831054531 | 65 | 23 | 0.0 | 0.0 | 0.00 | 0.08 | 0.00 | 90 | 1018.6 |
| 20260831054031 | 65 | 23 | 0.0 | 0.0 | 0.00 | 0.08 | 0.00 | 91 | 1018.6 |
| 20260831053530 | 65 | 24 | 0.0 | 0.0 | 0.00 | 0.08 | 0.00 | 91 | 1018.5 |
| 20260831053032 | 65 | 23 | 0.0 | 0.0 | 0.00 | 0.08 | 0.00 | 91 | 1018.5 |
| 20260831052530 | 65 | 24 | 0.0 | 0.0 | 0.00 | 0.08 | 0.00 | 91 | 1018.7 |
| 20260831052032 | 65 | 24 | 0.0 | 0.0 | 0.00 | 0.08 | 0.00 | 91 | 1018.6 |
| 20260831051530 | 65 | 24 | 0.0 | 0.0 | 0.00 | 0.08 | 0.00 | 91 | 1018.7 |
| 20260831051032 | 65 | 23 | 0.0 | 0.0 | 0.00 | 0.08 | 0.00 | 91 | 1018.6 |
| 20260831050531 | 65 | 22 | 0.0 | 0.0 | 0.00 | 0.08 | 0.00 | 91 | 1018.7 |
| 20260831050031 | 65 | 24 | 0.0 | 0.0 | 0.00 | 0.08 | 0.00 | 91 | 1018.7 |
| 20260831045531 | 65 | 23 | 0.0 | 0.0 | 0.00 | 0.08 | 0.00 | 91 | 1018.7 |
| 20260831045033 | 64 | 23 | 0.0 | 0.0 | 0.00 | 0.08 | 0.00 | 91 | 1018.7 |
| 20260831044528 | 64 | 22 | 0.0 | 0.0 | 0.00 | 0.08 | 0.00 | 91 | 1018.7 |
| 20260831044022 | 64 | 23 | 0.0 | 0.0 | 0.00 | 0.08 | 0.00 | 91 | 1018.9 |
| 20260831043516 | 64 | 24 | 0.0 | 0.0 | 0.00 | 0.08 | 0.00 | 91 | 1019.0 |
| 20260831043011 | 64 | 23 | 0.0 | 0.0 | 0.00 | 0.08 | 0.00 | 91 | 1019.0 |
| 20260831042508 | 64 | 22 | 0.0 | 0.0 | 0.00 | 0.08 | 0.00 | 91 | 1019.0 |
| 20260831042009 | 64 | 23 | 0.0 | 0.0 | 0.00 | 0.08 | 0.00 | 91 | 1019.0 |
| 20260831041506 | 64 | 23 | 0.0 | 0.0 | 0.00 | 0.08 | 0.00 | 91 | 1019.0 |
| 20260831041006 | 63 | 22 | 0.0 | 0.0 | 0.00 | 0.08 | 0.00 | 91 | 1018.9 |
| 20260831040504 | 63 | 24 | 0.0 | 0.0 | 0.00 | 0.08 | 0.00 | 91 | 1018.9 |
| 20260831040005 | 63 | 26 | 0.0 | 0.0 | 0.00 | 0.08 | 0.00 | 91 | 1018.8 |
| 20260831035504 | 63 | 26 | 0.0 | 0.0 | 0.00 | 0.08 | 0.08 | 91 | 1018.8 |
| 20260831035004 | 63 | 24 | 0.0 | 0.0 | 0.00 | 0.08 | 0.08 | 91 | 1018.8 |
| 20260831034503 | 63 | 26 | 0.0 | 0.0 | 0.00 | 0.08 | 0.08 | 91 | 1018.8 |
| 20260831034003 | 63 | 26 | 0.0 | 0.0 | 0.00 | 0.08 | 0.08 | 91 | 1018.9 |
| 20260831033504 | 63 | 26 | 0.0 | 0.0 | 0.00 | 0.08 | 0.08 | 91 | 1018.9 |
| 20260831033002 | 63 | 28 | 0.0 | 0.0 | 0.00 | 0.08 | 0.08 | 91 | 1018.8 |
| 20260831032503 | 63 | 27 | 0.0 | 0.0 | 0.00 | 0.08 | 0.08 | 91 | 1018.8 |
| 20260831032003 | 63 | 27 | 0.0 | 0.0 | 0.00 | 0.08 | 0.08 | 91 | 1018.9 |
| 20260831031503 | 63 | 27 | 0.0 | 0.0 | 0.00 | 0.08 | 0.08 | 91 | 1018.8 |
| 20260831031002 | 63 | 27 | 0.0 | 0.0 | 0.00 | 0.08 | 0.08 | 91 | 1019.0 |
| 20260831030503 | 63 | 27 | 0.0 | 0.0 | 0.00 | 0.08 | 0.08 | 91 | 1019.0 |
| 20260831030005 | 63 | 29 | 0.0 | 0.0 | 0.00 | 0.08 | 0.08 | 91 | 1019.0 |
| 20260831025503 | 63 | 28 | 0.0 | 0.0 | 0.00 | 0.08 | 0.08 | 91 | 1019.1 |
| 20260831025003 | 63 | 29 | 0.0 | 0.0 | 0.00 | 0.08 | 0.08 | 91 | 1018.7 |
| 20260831024502 | 63 | 29 | 0.0 | 0.0 | 0.00 | 0.08 | 0.08 | 91 | 1018.8 |
| 20260831024002 | 63 | 29 | 0.0 | 0.0 | 0.00 | 0.08 | 0.08 | 91 | 1018.8 |
| 20260831023502 | 63 | 28 | 0.0 | 0.0 | 0.00 | 0.08 | 0.08 | 91 | 1018.8 |
| 20260831023003 | 63 | 29 | 0.0 | 0.0 | 0.00 | 0.08 | 0.08 | 91 | 1018.8 |
| 20260831022502 | 63 | 30 | 0.0 | 0.0 | 0.00 | 0.08 | 0.08 | 91 | 1018.7 |
| 20260831022002 | 64 | 30 | 0.0 | 0.0 | 0.00 | 0.08 | 0.08 | 91 | 1018.8 |
| 20260831021503 | 64 | 29 | 0.0 | 0.0 | 0.00 | 0.08 | 0.08 | 91 | 1018.9 |
| 20260831021003 | 64 | 28 | 0.0 | 0.0 | 0.00 | 0.08 | 0.08 | 91 | 1019.0 |
| 20260831020502 | 64 | 26 | 0.0 | 0.0 | 0.00 | 0.08 | 0.08 | 91 | 1018.9 |
| 20260831020005 | 64 | 26 | 0.0 | 0.0 | 0.00 | 0.08 | 0.08 | 90 | 1019.0 |
| 20260831015502 | 64 | 26 | 0.0 | 0.0 | 0.00 | 0.08 | 0.08 | 90 | 1019.1 |
| 20260831015003 | 64 | 26 | 0.0 | 0.0 | 0.00 | 0.08 | 0.08 | 90 | 1019.2 |
| 20260831014502 | 64 | 25 | 0.0 | 0.0 | 0.00 | 0.08 | 0.08 | 90 | 1019.2 |
| 20260831014000 | 64 | 24 | 0.0 | 0.0 | 0.00 | 0.08 | 0.08 | 90 | 1019.3 |
| 20260831013456 | 64 | 24 | 0.0 | 0.0 | 0.00 | 0.08 | 0.08 | 90 | 1019.3 |
| 20260831012956 | 64 | 24 | 0.0 | 0.0 | 0.00 | 0.08 | 0.08 | 90 | 1019.3 |
| 20260831012457 | 64 | 26 | 0.0 | 0.0 | 0.00 | 0.08 | 0.08 | 90 | 1019.2 |
| 20260831011954 | 65 | 24 | 0.0 | 0.0 | 0.00 | 0.08 | 0.08 | 90 | 1019.2 |
| 20260831011452 | 65 | 24 | 0.0 | 0.0 | 0.00 | 0.08 | 0.08 | 90 | 1019.0 |
| 20260831010951 | 65 | 23 | 0.0 | 0.0 | 0.00 | 0.08 | 0.08 | 90 | 1019.0 |
| 20260831010449 | 65 | 22 | 0.0 | 0.0 | 0.00 | 0.08 | 0.08 | 90 | 1019.0 |
| 20260831005947 | 65 | 22 | 0.0 | 0.0 | 0.00 | 0.08 | 0.08 | 89 | 1018.9 |
| 20260831005445 | 65 | 22 | 0.0 | 0.0 | 0.00 | 0.08 | 0.08 | 89 | 1018.8 |
| 20260831004943 | 65 | 22 | 0.0 | 0.0 | 0.00 | 0.08 | 0.08 | 89 | 1018.8 |
| 20260831004441 | 65 | 22 | 0.0 | 0.0 | 0.00 | 0.08 | 0.08 | 89 | 1018.7 |
| 20260831003940 | 65 | 22 | 0.0 | 0.0 | 0.00 | 0.08 | 0.08 | 89 | 1018.6 |
| 20260831003441 | 66 | 22 | 0.0 | 0.0 | 0.00 | 0.08 | 0.08 | 89 | 1018.5 |
| 20260831002939 | 66 | 20 | 0.0 | 0.0 | 0.00 | 0.08 | 0.08 | 89 | 1018.4 |
| 20260831002437 | 66 | 20 | 0.0 | 0.0 | 0.00 | 0.08 | 0.08 | 89 | 1018.2 |
| 20260831001935 | 66 | 21 | 0.0 | 0.0 | 0.00 | 0.08 | 0.08 | 88 | 1018.2 |
| 20260831001431 | 66 | 19 | 0.0 | 0.0 | 0.00 | 0.08 | 0.08 | 88 | 1018.1 |
| 20260831000930 | 66 | 20 | 0.0 | 0.0 | 0.00 | 0.08 | 0.08 | 88 | 1018.1 |
| 20260831000432 | 67 | 19 | 0.0 | 0.0 | 0.00 | 0.08 | 0.08 | 88 | 1018.0 |
| 20260830235930 | 67 | 17 | 0.0 | 0.0 | 0.00 | 0.08 | 0.08 | 88 | 1017.9 |
| 20260830235431 | 67 | 17 | 0.0 | 0.0 | 0.00 | 0.08 | 0.08 | 87 | 1017.9 |
| 20260830234931 | 67 | 17 | 0.0 | 0.0 | 0.00 | 0.08 | 0.08 | 87 | 1017.9 |
| 20260830234424 | 67 | 16 | 0.0 | 0.0 | 0.00 | 0.08 | 0.08 | 87 | 1017.9 |